| time (UTC) | temp F | wind direction | speed MPH | gust MPH | rain 1hr in | rain 24hr in | rain mn in | humidity % | barometer mb |
| 20260510032559 | 62 | 0 | 1.0 | 3.0 | 0.00 | 0.00 | 0.00 | 26 | 1023.4 |
| 20260510032101 | 61 | 0 | 1.0 | 3.0 | 0.00 | 0.00 | 0.00 | 27 | 1023.4 |
| 20260510031600 | 62 | 168 | 1.0 | 3.0 | 0.00 | 0.00 | 0.00 | 27 | 1023.3 |
| 20260510031059 | 63 | 191 | 1.0 | 3.0 | 0.00 | 0.00 | 0.00 | 25 | 1023.2 |
| 20260510030557 | 63 | 0 | 0.0 | 2.0 | 0.00 | 0.00 | 0.00 | 25 | 1023.1 |
| 20260510030058 | 64 | 180 | 0.0 | 2.0 | 0.00 | 0.00 | 0.00 | 26 | 1023.1 |
| 20260510025557 | 65 | 0 | 0.0 | 2.0 | 0.00 | 0.00 | 0.00 | 25 | 1022.9 |
| 20260510025058 | 67 | 180 | 0.0 | 2.0 | 0.00 | 0.00 | 0.00 | 24 | 1022.9 |
| 20260510024602 | 68 | 220 | 0.0 | 5.0 | 0.00 | 0.00 | 0.00 | 21 | 1022.8 |
| 20260510024057 | 68 | 120 | 1.0 | 6.0 | 0.00 | 0.00 | 0.00 | 20 | 1022.8 |
| 20260510023558 | 69 | 38 | 2.0 | 6.0 | 0.00 | 0.00 | 0.00 | 20 | 1022.8 |
| 20260510023057 | 69 | 0 | 0.0 | 6.0 | 0.00 | 0.00 | 0.00 | 21 | 1022.7 |
| 20260510022557 | 70 | 70 | 2.0 | 6.0 | 0.00 | 0.00 | 0.00 | 20 | 1022.6 |
| 20260510022059 | 70 | 11 | 1.0 | 6.0 | 0.00 | 0.00 | 0.00 | 20 | 1022.6 |
| 20260510021557 | 70 | 315 | 2.0 | 6.0 | 0.00 | 0.00 | 0.00 | 20 | 1022.6 |
| 20260510021057 | 70 | 34 | 3.0 | 11.0 | 0.00 | 0.00 | 0.00 | 20 | 1022.6 |
| 20260510020602 | 71 | 80 | 3.0 | 11.0 | 0.00 | 0.00 | 0.00 | 19 | 1022.6 |
| 20260510020100 | 71 | 80 | 5.0 | 13.0 | 0.00 | 0.00 | 0.00 | 19 | 1022.6 |
| 20260510015557 | 71 | 41 | 5.0 | 13.0 | 0.00 | 0.00 | 0.00 | 19 | 1022.4 |
| 20260510015057 | 71 | 48 | 4.0 | 10.0 | 0.00 | 0.00 | 0.00 | 20 | 1022.5 |
| 20260510014557 | 72 | 39 | 4.0 | 10.0 | 0.00 | 0.00 | 0.00 | 19 | 1022.4 |
| 20260510014057 | 72 | 47 | 1.0 | 4.0 | 0.00 | 0.00 | 0.00 | 19 | 1022.4 |
| 20260510013558 | 73 | 43 | 1.0 | 9.0 | 0.00 | 0.00 | 0.00 | 20 | 1022.3 |
| 20260510013059 | 73 | 48 | 2.0 | 9.0 | 0.00 | 0.00 | 0.00 | 19 | 1022.2 |
| 20260510012601 | 73 | 76 | 2.0 | 7.0 | 0.00 | 0.00 | 0.00 | 19 | 1022.2 |
| 20260510012058 | 73 | 48 | 2.0 | 9.0 | 0.00 | 0.00 | 0.00 | 20 | 1022.3 |
| 20260510011612 | 73 | 51 | 2.0 | 9.0 | 0.00 | 0.00 | 0.00 | 20 | 1022.3 |
| 20260510011057 | 73 | 43 | 4.0 | 9.0 | 0.00 | 0.00 | 0.00 | 20 | 1022.2 |
| 20260510010555 | 73 | 56 | 3.0 | 8.0 | 0.00 | 0.00 | 0.00 | 21 | 1022.3 |
| 20260510010103 | 73 | 32 | 4.0 | 8.0 | 0.00 | 0.00 | 0.00 | 20 | 1022.4 |
| 20260510005558 | 73 | 97 | 1.0 | 12.0 | 0.00 | 0.00 | 0.00 | 21 | 1022.4 |
| 20260510005057 | 73 | 11 | 4.0 | 12.0 | 0.00 | 0.00 | 0.00 | 21 | 1022.3 |
| 20260510004600 | 74 | 55 | 5.0 | 12.0 | 0.00 | 0.00 | 0.00 | 20 | 1022.4 |
| 20260510004100 | 74 | 95 | 1.0 | 11.0 | 0.00 | 0.00 | 0.00 | 21 | 1022.4 |
| 20260510003558 | 74 | 116 | 3.0 | 8.0 | 0.00 | 0.00 | 0.00 | 20 | 1022.4 |
| 20260510003116 | 74 | 0 | 3.0 | 10.0 | 0.00 | 0.00 | 0.00 | 20 | 1022.4 |
| 20260510002557 | 74 | 85 | 5.0 | 10.0 | 0.00 | 0.00 | 0.00 | 20 | 1022.4 |
| 20260510002058 | 74 | 167 | 4.0 | 8.0 | 0.00 | 0.00 | 0.00 | 19 | 1022.4 |
| 20260510001556 | 75 | 219 | 2.0 | 8.0 | 0.00 | 0.00 | 0.00 | 20 | 1022.4 |
| 20260510001058 | 75 | 0 | 0.0 | 8.0 | 0.00 | 0.00 | 0.00 | 20 | 1022.4 |
| 20260510000600 | 74 | 120 | 1.0 | 8.0 | 0.00 | 0.00 | 0.00 | 20 | 1022.4 |
| 20260509235557 | 74 | 86 | 3.0 | 10.0 | 0.00 | 0.00 | 0.00 | 20 | 1022.5 |
| 20260509235057 | 74 | 106 | 6.0 | 11.0 | 0.00 | 0.00 | 0.00 | 20 | 1022.4 |
| 20260509234611 | 75 | 67 | 6.0 | 11.0 | 0.00 | 0.00 | 0.00 | 20 | 1022.4 |
| 20260509234057 | 74 | 168 | 2.0 | 11.0 | 0.00 | 0.00 | 0.00 | 20 | 1022.5 |
| 20260509233558 | 74 | 177 | 6.0 | 17.0 | 0.00 | 0.00 | 0.00 | 21 | 1022.5 |
| 20260509233057 | 74 | 122 | 5.0 | 17.0 | 0.00 | 0.00 | 0.00 | 21 | 1022.3 |
| 20260509232557 | 74 | 46 | 0.0 | 13.0 | 0.00 | 0.00 | 0.00 | 21 | 1022.4 |
| 20260509232058 | 74 | 122 | 6.0 | 13.0 | 0.00 | 0.00 | 0.00 | 20 | 1022.5 |
| 20260509231557 | 74 | 96 | 7.0 | 13.0 | 0.00 | 0.00 | 0.00 | 21 | 1022.5 |
| 20260509231057 | 74 | 143 | 3.0 | 12.0 | 0.00 | 0.00 | 0.00 | 20 | 1022.4 |
| 20260509230557 | 75 | 143 | 4.0 | 12.0 | 0.00 | 0.00 | 0.00 | 21 | 1022.6 |
| 20260509230108 | 75 | 110 | 1.0 | 5.0 | 0.00 | 0.00 | 0.00 | 21 | 1022.5 |
| 20260509225557 | 76 | 345 | 1.0 | 5.0 | 0.00 | 0.00 | 0.00 | 21 | 1022.6 |
| 20260509225057 | 76 | 77 | 2.0 | 12.0 | 0.00 | 0.00 | 0.00 | 20 | 1022.5 |
| 20260509224556 | 76 | 20 | 3.0 | 12.0 | 0.00 | 0.00 | 0.00 | 20 | 1022.5 |
| 20260509224057 | 76 | 335 | 1.0 | 3.0 | 0.00 | 0.00 | 0.00 | 21 | 1022.6 |
| 20260509223557 | 76 | 350 | 0.0 | 7.0 | 0.00 | 0.00 | 0.00 | 21 | 1022.6 |
| 20260509223058 | 76 | 0 | 3.0 | 7.0 | 0.00 | 0.00 | 0.00 | 20 | 1022.8 |
| 20260509222557 | 75 | 272 | 1.0 | 6.0 | 0.00 | 0.00 | 0.00 | 21 | 1022.9 |
| 20260509222058 | 75 | 295 | 3.0 | 7.0 | 0.00 | 0.00 | 0.00 | 20 | 1023.0 |
| 20260509221555 | 75 | 226 | 2.0 | 7.0 | 0.00 | 0.00 | 0.00 | 21 | 1023.1 |
| 20260509221057 | 74 | 44 | 2.0 | 7.0 | 0.00 | 0.00 | 0.00 | 22 | 1023.0 |
| 20260509220556 | 74 | 33 | 3.0 | 8.0 | 0.00 | 0.00 | 0.00 | 21 | 1023.1 |
| 20260509215558 | 75 | 60 | 3.0 | 8.0 | 0.00 | 0.00 | 0.00 | 21 | 1023.2 |
| 20260509215058 | 76 | 342 | 2.0 | 10.0 | 0.00 | 0.00 | 0.00 | 21 | 1023.3 |
| 20260509214558 | 77 | 360 | 3.0 | 10.0 | 0.00 | 0.00 | 0.00 | 21 | 1023.3 |
| 20260509214100 | 77 | 43 | 0.0 | 8.0 | 0.00 | 0.00 | 0.00 | 21 | 1023.2 |
| 20260509213558 | 76 | 259 | 3.0 | 8.0 | 0.00 | 0.00 | 0.00 | 21 | 1023.4 |
| 20260509213102 | 75 | 209 | 2.0 | 7.0 | 0.00 | 0.00 | 0.00 | 22 | 1023.4 |
| 20260509212601 | 75 | 223 | 1.0 | 9.0 | 0.00 | 0.00 | 0.00 | 22 | 1023.4 |
| 20260509212058 | 74 | 249 | 1.0 | 10.0 | 0.00 | 0.00 | 0.00 | 21 | 1023.4 |
| 20260509211603 | 74 | 105 | 3.0 | 13.0 | 0.00 | 0.00 | 0.00 | 21 | 1023.4 |
| 20260509211058 | 74 | 118 | 5.0 | 13.0 | 0.00 | 0.00 | 0.00 | 23 | 1023.5 |
| 20260509210600 | 75 | 47 | 2.0 | 12.0 | 0.00 | 0.00 | 0.00 | 21 | 1023.5 |
| 20260509205557 | 76 | 0 | 2.0 | 10.0 | 0.00 | 0.00 | 0.00 | 20 | 1023.5 |
| 20260509205057 | 76 | 41 | 2.0 | 9.0 | 0.00 | 0.00 | 0.00 | 22 | 1023.5 |
| 20260509204557 | 77 | 298 | 2.0 | 8.0 | 0.00 | 0.00 | 0.00 | 21 | 1023.5 |
| 20260509204057 | 76 | 313 | 1.0 | 5.0 | 0.00 | 0.00 | 0.00 | 20 | 1023.6 |
| 20260509203557 | 76 | 238 | 1.0 | 10.0 | 0.00 | 0.00 | 0.00 | 21 | 1023.6 |
| 20260509203059 | 75 | 309 | 1.0 | 10.0 | 0.00 | 0.00 | 0.00 | 21 | 1023.7 |
| 20260509202600 | 75 | 154 | 3.0 | 7.0 | 0.00 | 0.00 | 0.00 | 21 | 1023.7 |
| 20260509202057 | 75 | 174 | 0.0 | 6.0 | 0.00 | 0.00 | 0.00 | 22 | 1023.8 |
| 20260509201559 | 73 | 234 | 0.0 | 12.0 | 0.00 | 0.00 | 0.00 | 21 | 1023.8 |
| 20260509201056 | 73 | 92 | 2.0 | 12.0 | 0.00 | 0.00 | 0.00 | 23 | 1024.0 |
| 20260509200558 | 74 | 100 | 4.0 | 12.0 | 0.00 | 0.00 | 0.00 | 21 | 1024.0 |
| 20260509195558 | 73 | 63 | 1.0 | 8.0 | 0.00 | 0.00 | 0.00 | 23 | 1024.2 |
| 20260509195057 | 73 | 0 | 2.0 | 8.0 | 0.00 | 0.00 | 0.00 | 23 | 1024.4 |
| 20260509194559 | 73 | 125 | 6.0 | 12.0 | 0.00 | 0.00 | 0.00 | 22 | 1024.4 |
| 20260509194057 | 73 | 225 | 4.0 | 12.0 | 0.00 | 0.00 | 0.00 | 23 | 1024.5 |
| 20260509193559 | 74 | 309 | 3.0 | 6.0 | 0.00 | 0.00 | 0.00 | 23 | 1024.6 |
| 20260509193100 | 74 | 83 | 2.0 | 6.0 | 0.00 | 0.00 | 0.00 | 23 | 1024.6 |
| 20260509192557 | 74 | 63 | 2.0 | 6.0 | 0.00 | 0.00 | 0.00 | 24 | 1024.6 |
| 20260509192059 | 75 | 296 | 2.0 | 6.0 | 0.00 | 0.00 | 0.00 | 22 | 1024.6 |
| 20260509191557 | 75 | 281 | 2.0 | 6.0 | 0.00 | 0.00 | 0.00 | 23 | 1024.6 |
| 20260509191101 | 74 | 297 | 0.0 | 5.0 | 0.00 | 0.00 | 0.00 | 24 | 1024.6 |
| 20260509190649 | 73 | 271 | 2.0 | 5.0 | 0.00 | 0.00 | 0.00 | 24 | 1024.7 |
| 20260509190058 | 73 | 257 | 1.0 | 8.0 | 0.00 | 0.00 | 0.00 | 24 | 1024.7 |
| 20260509185558 | 72 | 32 | 2.0 | 8.0 | 0.00 | 0.00 | 0.00 | 25 | 1024.7 |
| 20260509185057 | 72 | 49 | 0.0 | 5.0 | 0.00 | 0.00 | 0.00 | 25 | 1024.8 |
| 20260509184602 | 73 | 113 | 1.0 | 6.0 | 0.00 | 0.00 | 0.00 | 24 | 1024.9 |
| 20260509184057 | 73 | 308 | 2.0 | 6.0 | 0.00 | 0.00 | 0.00 | 25 | 1025.1 |
| 20260509183601 | 74 | 265 | 1.0 | 6.0 | 0.00 | 0.00 | 0.00 | 25 | 1025.2 |
| 20260509183139 | 73 | 323 | 1.0 | 6.0 | 0.00 | 0.00 | 0.00 | 25 | 1025.1 |
| 20260509182557 | 74 | 229 | 1.0 | 3.0 | 0.00 | 0.00 | 0.00 | 25 | 1025.1 |
| 20260509182058 | 73 | 266 | 1.0 | 3.0 | 0.00 | 0.00 | 0.00 | 25 | 1025.2 |
| 20260509181616 | 72 | 65 | 1.0 | 3.0 | 0.00 | 0.00 | 0.00 | 25 | 1025.2 |
| 20260509181057 | 71 | 30 | 1.0 | 5.0 | 0.00 | 0.00 | 0.00 | 24 | 1025.4 |
| 20260509180557 | 70 | 316 | 2.0 | 5.0 | 0.00 | 0.00 | 0.00 | 24 | 1025.3 |
| 20260509180104 | 70 | 294 | 1.0 | 5.0 | 0.00 | 0.00 | 0.00 | 25 | 1025.3 |
| 20260509175557 | 70 | 307 | 1.0 | 5.0 | 0.00 | 0.00 | 0.00 | 25 | 1025.3 |
| 20260509175059 | 70 | 29 | 2.0 | 5.0 | 0.00 | 0.00 | 0.00 | 25 | 1025.3 |
| 20260509174559 | 69 | 273 | 1.0 | 7.0 | 0.00 | 0.00 | 0.00 | 26 | 1025.3 |
| 20260509174058 | 68 | 15 | 4.0 | 8.0 | 0.00 | 0.00 | 0.00 | 28 | 1025.1 |
| 20260509173601 | 67 | 47 | 4.0 | 8.0 | 0.00 | 0.00 | 0.00 | 28 | 1025.3 |
| 20260509173106 | 67 | 63 | 3.0 | 8.0 | 0.00 | 0.00 | 0.00 | 28 | 1025.1 |
| 20260509172558 | 68 | 49 | 2.0 | 7.0 | 0.00 | 0.00 | 0.00 | 30 | 1025.2 |
| 20260509172100 | 68 | 30 | 3.0 | 5.0 | 0.00 | 0.00 | 0.00 | 30 | 1025.1 |
| 20260509171601 | 68 | 53 | 1.0 | 3.0 | 0.00 | 0.00 | 0.00 | 29 | 1025.1 |
| 20260509171058 | 67 | 0 | 1.0 | 6.0 | 0.00 | 0.00 | 0.00 | 33 | 1025.1 |
| 20260509170557 | 67 | 304 | 3.0 | 6.0 | 0.00 | 0.00 | 0.00 | 33 | 1025.1 |
| 20260509170101 | 67 | 41 | 1.0 | 4.0 | 0.00 | 0.00 | 0.00 | 36 | 1025.1 |
| 20260509165558 | 66 | 41 | 2.0 | 4.0 | 0.00 | 0.00 | 0.00 | 34 | 1025.2 |
| 20260509165057 | 66 | 39 | 1.0 | 3.0 | 0.00 | 0.00 | 0.00 | 35 | 1025.2 |
| 20260509164608 | 66 | 314 | 0.0 | 3.0 | 0.00 | 0.00 | 0.00 | 34 | 1025.2 |
| 20260509164057 | 65 | 0 | 1.0 | 3.0 | 0.00 | 0.00 | 0.00 | 34 | 1025.4 |
| 20260509163558 | 65 | 309 | 1.0 | 3.0 | 0.00 | 0.00 | 0.00 | 35 | 1025.4 |
| 20260509163108 | 64 | 0 | 0.0 | 4.0 | 0.00 | 0.00 | 0.00 | 37 | 1025.6 |
| 20260509162557 | 62 | 0 | 0.0 | 4.0 | 0.00 | 0.00 | 0.00 | 38 | 1025.6 |
| 20260509162056 | 61 | 49 | 0.0 | 4.0 | 0.00 | 0.00 | 0.00 | 40 | 1025.5 |
| 20260509161605 | 61 | 74 | 1.0 | 4.0 | 0.00 | 0.00 | 0.00 | 39 | 1025.5 |
| 20260509161057 | 61 | 0 | 1.0 | 4.0 | 0.00 | 0.00 | 0.00 | 39 | 1025.6 |
| 20260509160558 | 60 | 52 | 2.0 | 4.0 | 0.00 | 0.00 | 0.00 | 40 | 1025.6 |
| 20260509160100 | 60 | 46 | 2.0 | 4.0 | 0.00 | 0.00 | 0.00 | 40 | 1025.5 |
| 20260509155559 | 60 | 64 | 0.0 | 4.0 | 0.00 | 0.00 | 0.00 | 39 | 1025.5 |
| 20260509155058 | 59 | 0 | 1.0 | 4.0 | 0.00 | 0.00 | 0.00 | 40 | 1025.5 |
| 20260509154606 | 58 | 75 | 1.0 | 4.0 | 0.00 | 0.00 | 0.00 | 40 | 1025.7 |
| 20260509154058 | 57 | 27 | 2.0 | 4.0 | 0.00 | 0.00 | 0.00 | 43 | 1025.6 |
| 20260509153557 | 57 | 62 | 2.0 | 4.0 | 0.00 | 0.00 | 0.00 | 44 | 1025.6 |
| 20260509153059 | 57 | 0 | 0.0 | 3.0 | 0.00 | 0.00 | 0.00 | 44 | 1025.5 |
| 20260509152557 | 56 | 49 | 0.0 | 3.0 | 0.00 | 0.00 | 0.00 | 47 | 1025.7 |
| 20260509152057 | 55 | 56 | 0.0 | 3.0 | 0.00 | 0.00 | 0.00 | 48 | 1025.7 |
| 20260509151559 | 54 | 51 | 1.0 | 2.0 | 0.00 | 0.00 | 0.00 | 49 | 1025.7 |
| 20260509151058 | 54 | 68 | 1.0 | 3.0 | 0.00 | 0.00 | 0.00 | 50 | 1025.7 |
| 20260509150558 | 53 | 60 | 2.0 | 3.0 | 0.00 | 0.00 | 0.00 | 49 | 1025.8 |
| 20260509150058 | 53 | 63 | 0.0 | 3.0 | 0.00 | 0.00 | 0.00 | 51 | 1025.9 |
| 20260509145558 | 53 | 298 | 0.0 | 3.0 | 0.00 | 0.00 | 0.00 | 50 | 1025.8 |
| 20260509145059 | 52 | 38 | 0.0 | 2.0 | 0.00 | 0.00 | 0.00 | 53 | 1025.7 |
| 20260509144558 | 51 | 0 | 0.0 | 2.0 | 0.00 | 0.00 | 0.00 | 56 | 1025.7 |
| 20260509144057 | 49 | 56 | 0.0 | 1.0 | 0.00 | 0.00 | 0.00 | 56 | 1025.7 |
| 20260509143558 | 48 | 67 | 0.0 | 1.0 | 0.00 | 0.00 | 0.00 | 60 | 1025.9 |
| 20260509143103 | 48 | 0 | 0.0 | 1.0 | 0.00 | 0.00 | 0.00 | 61 | 1026.0 |
| 20260509142557 | 48 | 0 | 0.0 | 1.0 | 0.00 | 0.00 | 0.00 | 64 | 1026.0 |
| 20260509142058 | 47 | 122 | 0.0 | 1.0 | 0.00 | 0.00 | 0.00 | 63 | 1026.0 |
| 20260509141609 | 47 | 165 | 0.0 | 0.0 | 0.00 | 0.00 | 0.00 | 63 | 1026.0 |
| 20260509141059 | 46 | 0 | 0.0 | 0.0 | 0.00 | 0.00 | 0.00 | 60 | 1026.0 |
| 20260509140558 | 45 | 0 | 0.0 | 0.0 | 0.00 | 0.00 | 0.00 | 62 | 1026.0 |
| 20260509140107 | 44 | 0 | 0.0 | 0.0 | 0.00 | 0.00 | 0.00 | 63 | 1026.0 |
| 20260509135559 | 43 | 0 | 0.0 | 1.0 | 0.00 | 0.00 | 0.00 | 62 | 1026.0 |
| 20260509135057 | 41 | 0 | 0.0 | 1.0 | 0.00 | 0.00 | 0.00 | 68 | 1026.0 |
| 20260509134603 | 39 | 0 | 0.0 | 1.0 | 0.00 | 0.00 | 0.00 | 71 | 1026.0 |
| 20260509134102 | 37 | 0 | 0.0 | 1.0 | 0.00 | 0.00 | 0.00 | 69 | 1026.0 |
| 20260509133558 | 37 | 0 | 0.0 | 1.0 | 0.00 | 0.00 | 0.00 | 71 | 1025.9 |
| 20260509133105 | 37 | 0 | 0.0 | 1.0 | 0.00 | 0.00 | 0.00 | 73 | 1025.8 |
| 20260509132558 | 37 | 196 | 0.0 | 0.0 | 0.00 | 0.00 | 0.00 | 73 | 1025.6 |
| 20260509132102 | 37 | 205 | 0.0 | 1.0 | 0.00 | 0.00 | 0.00 | 70 | 1025.5 |
| 20260509131557 | 37 | 0 | 0.0 | 1.0 | 0.00 | 0.00 | 0.00 | 70 | 1025.3 |
| 20260509131057 | 37 | 0 | 0.0 | 0.0 | 0.00 | 0.00 | 0.00 | 70 | 1025.2 |
| 20260509130557 | 37 | 0 | 0.0 | 0.0 | 0.00 | 0.00 | 0.00 | 70 | 1025.2 |
| 20260509130104 | 37 | 0 | 0.0 | 0.0 | 0.00 | 0.00 | 0.00 | 69 | 1025.1 |
| 20260509125558 | 37 | 0 | 0.0 | 0.0 | 0.00 | 0.00 | 0.00 | 68 | 1025.1 |
| 20260509125057 | 37 | 0 | 0.0 | 0.0 | 0.00 | 0.00 | 0.00 | 68 | 1025.0 |
| 20260509124607 | 37 | 0 | 0.0 | 0.0 | 0.00 | 0.00 | 0.00 | 68 | 1025.0 |
| 20260509124057 | 37 | 0 | 0.0 | 0.0 | 0.00 | 0.00 | 0.00 | 69 | 1025.0 |
| 20260509123557 | 37 | 0 | 0.0 | 1.0 | 0.00 | 0.00 | 0.00 | 69 | 1025.1 |
| 20260509123100 | 38 | 0 | 0.0 | 2.0 | 0.00 | 0.00 | 0.00 | 68 | 1025.0 |
| 20260509122557 | 38 | 0 | 0.0 | 2.0 | 0.00 | 0.00 | 0.00 | 66 | 1024.9 |
| 20260509122058 | 38 | 213 | 0.0 | 1.0 | 0.00 | 0.00 | 0.00 | 66 | 1024.9 |
| 20260509121602 | 39 | 0 | 0.0 | 0.0 | 0.00 | 0.00 | 0.00 | 66 | 1024.9 |
| 20260509121102 | 38 | 0 | 0.0 | 2.0 | 0.00 | 0.00 | 0.00 | 67 | 1024.8 |
| 20260509120558 | 38 | 0 | 0.0 | 2.0 | 0.00 | 0.00 | 0.00 | 66 | 1024.9 |
| 20260509120059 | 38 | 176 | 0.0 | 2.0 | 0.00 | 0.00 | 0.00 | 65 | 1024.9 |
| 20260509115557 | 39 | 141 | 1.0 | 2.0 | 0.00 | 0.00 | 0.00 | 64 | 1024.8 |
| 20260509115057 | 39 | 0 | 0.0 | 0.0 | 0.00 | 0.00 | 0.00 | 65 | 1024.9 |
| 20260509114604 | 39 | 0 | 0.0 | 1.0 | 0.00 | 0.00 | 0.00 | 63 | 1024.9 |
| 20260509114059 | 40 | 0 | 0.0 | 1.0 | 0.00 | 0.00 | 0.00 | 62 | 1024.9 |
| 20260509113558 | 40 | 0 | 0.0 | 1.0 | 0.00 | 0.00 | 0.00 | 62 | 1024.8 |
| 20260509113058 | 40 | 0 | 0.0 | 0.0 | 0.00 | 0.00 | 0.00 | 62 | 1024.8 |
| 20260509112559 | 40 | 0 | 0.0 | 1.0 | 0.00 | 0.00 | 0.00 | 61 | 1024.7 |
| 20260509112057 | 41 | 0 | 0.0 | 1.0 | 0.00 | 0.00 | 0.00 | 60 | 1024.6 |
| 20260509111559 | 41 | 0 | 0.0 | 1.0 | 0.00 | 0.00 | 0.00 | 60 | 1024.7 |
| 20260509111057 | 41 | 0 | 0.0 | 0.0 | 0.00 | 0.00 | 0.00 | 60 | 1024.7 |
| 20260509110557 | 41 | 0 | 0.0 | 0.0 | 0.00 | 0.00 | 0.00 | 61 | 1024.6 |
| 20260509110057 | 41 | 0 | 0.0 | 2.0 | 0.00 | 0.00 | 0.00 | 62 | 1024.6 |
| 20260509105558 | 41 | 0 | 0.0 | 2.0 | 0.00 | 0.00 | 0.00 | 62 | 1024.6 |
| 20260509105059 | 40 | 0 | 0.0 | 0.0 | 0.00 | 0.00 | 0.00 | 62 | 1024.6 |
| 20260509104558 | 41 | 0 | 0.0 | 1.0 | 0.00 | 0.00 | 0.00 | 61 | 1024.6 |
| 20260509104058 | 42 | 0 | 0.0 | 1.0 | 0.00 | 0.00 | 0.00 | 61 | 1024.5 |
| 20260509103558 | 42 | 0 | 0.0 | 1.0 | 0.00 | 0.00 | 0.00 | 61 | 1024.4 |
| 20260509103102 | 42 | 0 | 0.0 | 0.0 | 0.00 | 0.00 | 0.00 | 61 | 1024.4 |
| 20260509102559 | 42 | 0 | 0.0 | 1.0 | 0.00 | 0.00 | 0.00 | 61 | 1024.5 |
| 20260509102058 | 42 | 0 | 0.0 | 1.0 | 0.00 | 0.00 | 0.00 | 60 | 1024.6 |
| 20260509101559 | 42 | 186 | 0.0 | 1.0 | 0.00 | 0.00 | 0.00 | 60 | 1024.8 |
| 20260509101057 | 42 | 0 | 0.0 | 2.0 | 0.00 | 0.00 | 0.00 | 59 | 1024.7 |
| 20260509100557 | 43 | 0 | 0.0 | 2.0 | 0.00 | 0.00 | 0.00 | 58 | 1024.6 |
| 20260509095600 | 44 | 0 | 0.0 | 3.0 | 0.00 | 0.00 | 0.00 | 58 | 1024.4 |
| 20260509095057 | 44 | 169 | 1.0 | 3.0 | 0.00 | 0.00 | 0.00 | 58 | 1024.4 |
| 20260509094559 | 44 | 0 | 0.0 | 2.0 | 0.00 | 0.00 | 0.00 | 59 | 1024.5 |
| 20260509094059 | 44 | 0 | 0.0 | 2.0 | 0.00 | 0.00 | 0.00 | 60 | 1024.6 |
| 20260509093557 | 44 | 181 | 0.0 | 2.0 | 0.00 | 0.00 | 0.00 | 59 | 1024.7 |
| 20260509093100 | 44 | 0 | 0.0 | 2.0 | 0.00 | 0.00 | 0.00 | 59 | 1024.7 |
| 20260509092559 | 44 | 0 | 0.0 | 2.0 | 0.00 | 0.00 | 0.00 | 59 | 1024.7 |
| 20260509092102 | 45 | 0 | 0.0 | 2.0 | 0.00 | 0.00 | 0.00 | 59 | 1024.8 |
| 20260509091557 | 44 | 0 | 0.0 | 3.0 | 0.00 | 0.00 | 0.00 | 60 | 1024.8 |
| 20260509091059 | 44 | 0 | 0.0 | 3.0 | 0.00 | 0.00 | 0.00 | 59 | 1024.7 |
| 20260509090558 | 44 | 176 | 0.0 | 2.0 | 0.00 | 0.00 | 0.00 | 60 | 1024.7 |
| 20260509090056 | 44 | 0 | 0.0 | 2.0 | 0.00 | 0.00 | 0.00 | 59 | 1024.7 |
| 20260509085559 | 45 | 235 | 0.0 | 2.0 | 0.00 | 0.00 | 0.00 | 61 | 1024.7 |
| 20260509085058 | 45 | 0 | 0.0 | 2.0 | 0.00 | 0.00 | 0.00 | 62 | 1024.6 |
| 20260509084600 | 44 | 179 | 1.0 | 2.0 | 0.00 | 0.00 | 0.00 | 62 | 1024.7 |
| 20260509084058 | 44 | 0 | 0.0 | 1.0 | 0.00 | 0.00 | 0.00 | 62 | 1024.7 |
| 20260509083557 | 45 | 248 | 0.0 | 2.0 | 0.00 | 0.00 | 0.00 | 61 | 1024.7 |
| 20260509083105 | 45 | 0 | 0.0 | 2.0 | 0.00 | 0.00 | 0.00 | 61 | 1024.6 |
| 20260509082557 | 46 | 203 | 1.0 | 2.0 | 0.00 | 0.00 | 0.00 | 59 | 1024.6 |
| 20260509082057 | 46 | 168 | 0.0 | 2.0 | 0.00 | 0.00 | 0.00 | 59 | 1024.8 |
| 20260509081555 | 46 | 0 | 0.0 | 2.0 | 0.00 | 0.00 | 0.00 | 58 | 1024.7 |
| 20260509081057 | 46 | 0 | 0.0 | 3.0 | 0.00 | 0.00 | 0.00 | 60 | 1024.9 |
| 20260509080559 | 46 | 173 | 0.0 | 3.0 | 0.00 | 0.00 | 0.00 | 57 | 1024.9 |
| 20260509080100 | 46 | 169 | 0.0 | 2.0 | 0.00 | 0.00 | 0.00 | 58 | 1025.1 |
| 20260509075601 | 46 | 0 | 0.0 | 2.0 | 0.00 | 0.00 | 0.00 | 58 | 1025.1 |
| 20260509075058 | 46 | 188 | 0.0 | 2.0 | 0.00 | 0.00 | 0.00 | 59 | 1025.1 |
| 20260509074559 | 46 | 0 | 0.0 | 2.0 | 0.00 | 0.00 | 0.00 | 57 | 1025.1 |
| 20260509074057 | 46 | 224 | 0.0 | 2.0 | 0.00 | 0.00 | 0.00 | 60 | 1025.1 |
| 20260509073558 | 47 | 0 | 0.0 | 2.0 | 0.00 | 0.00 | 0.00 | 55 | 1024.8 |
| 20260509073059 | 47 | 172 | 0.0 | 2.0 | 0.00 | 0.00 | 0.00 | 61 | 1024.6 |
| 20260509072600 | 47 | 0 | 0.0 | 1.0 | 0.00 | 0.00 | 0.00 | 54 | 1024.7 |
| 20260509072059 | 47 | 0 | 0.0 | 1.0 | 0.00 | 0.00 | 0.00 | 54 | 1024.7 |
| 20260509071558 | 47 | 0 | 0.0 | 1.0 | 0.00 | 0.00 | 0.00 | 53 | 1024.6 |
| 20260509071058 | 47 | 0 | 0.0 | 1.0 | 0.00 | 0.00 | 0.00 | 54 | 1024.6 |
| 20260509070559 | 47 | 0 | 0.0 | 1.0 | 0.00 | 0.00 | 0.00 | 54 | 1024.5 |
| 20260509070057 | 48 | 0 | 0.0 | 1.0 | 0.00 | 0.00 | 0.00 | 56 | 1024.5 |
| 20260509065558 | 48 | 0 | 0.0 | 1.0 | 0.00 | 0.00 | 0.00 | 52 | 1024.5 |
| 20260509065058 | 48 | 0 | 0.0 | 1.0 | 0.00 | 0.00 | 0.00 | 51 | 1024.4 |
| 20260509064617 | 49 | 0 | 0.0 | 1.0 | 0.00 | 0.00 | 0.00 | 51 | 1024.4 |
| 20260509064058 | 49 | 0 | 0.0 | 0.0 | 0.00 | 0.00 | 0.00 | 52 | 1024.5 |
| 20260509063558 | 49 | 0 | 0.0 | 0.0 | 0.00 | 0.00 | 0.00 | 54 | 1024.6 |
| 20260509063059 | 49 | 0 | 0.0 | 0.0 | 0.00 | 0.00 | 0.00 | 54 | 1024.6 |
| 20260509062558 | 49 | 0 | 0.0 | 1.0 | 0.00 | 0.00 | 0.00 | 52 | 1024.6 |
| 20260509062101 | 49 | 0 | 0.0 | 2.0 | 0.00 | 0.00 | 0.00 | 52 | 1024.8 |
| 20260509061558 | 49 | 235 | 0.0 | 2.0 | 0.00 | 0.00 | 0.00 | 55 | 1024.7 |
| 20260509061057 | 49 | 179 | 1.0 | 3.0 | 0.00 | 0.00 | 0.00 | 57 | 1024.6 |
| 20260509060557 | 49 | 0 | 0.0 | 3.0 | 0.00 | 0.00 | 0.00 | 58 | 1024.8 |
| 20260509060108 | 49 | 177 | 1.0 | 3.0 | 0.00 | 0.00 | 0.00 | 58 | 1024.8 |
| 20260509055600 | 49 | 233 | 0.0 | 2.0 | 0.00 | 0.00 | 0.00 | 60 | 1024.8 |
| 20260509055101 | 49 | 0 | 0.0 | 2.0 | 0.00 | 0.00 | 0.00 | 61 | 1024.9 |
| 20260509054603 | 49 | 176 | 0.0 | 2.0 | 0.00 | 0.00 | 0.00 | 62 | 1024.7 |
| 20260509054101 | 51 | 167 | 0.0 | 2.0 | 0.00 | 0.00 | 0.00 | 61 | 1024.7 |
| 20260509053558 | 51 | 207 | 0.0 | 5.0 | 0.00 | 0.00 | 0.00 | 64 | 1024.9 |
| 20260509053108 | 51 | 0 | 0.0 | 5.0 | 0.00 | 0.00 | 0.00 | 61 | 1024.9 |
| 20260509052557 | 52 | 210 | 0.0 | 5.0 | 0.00 | 0.00 | 0.00 | 60 | 1024.7 |
| 20260509052058 | 51 | 0 | 1.0 | 2.0 | 0.00 | 0.00 | 0.00 | 64 | 1024.7 |
| 20260509051603 | 52 | 0 | 0.0 | 2.0 | 0.00 | 0.00 | 0.00 | 62 | 1024.7 |
| 20260509051058 | 52 | 166 | 0.0 | 1.0 | 0.00 | 0.00 | 0.00 | 63 | 1024.7 |
| 20260509050600 | 53 | 70 | 0.0 | 1.0 | 0.00 | 0.00 | 0.00 | 61 | 1024.5 |
| 20260509050105 | 53 | 0 | 0.0 | 1.0 | 0.00 | 0.00 | 0.00 | 63 | 1024.7 |
| 20260509045557 | 53 | 0 | 0.0 | 0.0 | 0.00 | 0.00 | 0.00 | 60 | 1024.7 |
| 20260509045057 | 54 | 0 | 0.0 | 0.0 | 0.00 | 0.00 | 0.00 | 61 | 1024.5 |
| 20260509044559 | 54 | 0 | 0.0 | 1.0 | 0.00 | 0.00 | 0.00 | 58 | 1024.7 |
| 20260509044058 | 55 | 0 | 0.0 | 1.0 | 0.00 | 0.00 | 0.00 | 55 | 1024.5 |
| 20260509043557 | 55 | 0 | 0.0 | 2.0 | 0.00 | 0.00 | 0.00 | 55 | 1024.6 |
| 20260509043101 | 56 | 0 | 0.0 | 2.0 | 0.00 | 0.00 | 0.00 | 55 | 1024.6 |
| 20260509042558 | 55 | 46 | 0.0 | 2.0 | 0.00 | 0.00 | 0.00 | 55 | 1024.4 |
| 20260509042058 | 56 | 0 | 0.0 | 1.0 | 0.00 | 0.00 | 0.00 | 53 | 1024.3 |
| 20260509041556 | 56 | 0 | 0.0 | 1.0 | 0.00 | 0.00 | 0.00 | 55 | 1024.3 |
| 20260509041058 | 57 | 199 | 0.0 | 1.0 | 0.00 | 0.00 | 0.00 | 51 | 1024.3 |
| 20260509040557 | 57 | 0 | 0.0 | 2.0 | 0.00 | 0.00 | 0.00 | 53 | 1024.3 |
| 20260509040100 | 57 | 0 | 0.0 | 2.0 | 0.00 | 0.00 | 0.00 | 51 | 1024.2 |
| 20260509035600 | 57 | 237 | 1.0 | 2.0 | 0.00 | 0.00 | 0.00 | 53 | 1024.3 |
| 20260509035100 | 58 | 0 | 0.0 | 2.0 | 0.00 | 0.00 | 0.00 | 56 | 1024.0 |
| 20260509034558 | 58 | 0 | 0.0 | 2.0 | 0.00 | 0.00 | 0.00 | 52 | 1023.9 |
| 20260509034057 | 58 | 82 | 0.0 | 2.0 | 0.00 | 0.00 | 0.00 | 53 | 1024.0 |
| 20260509033600 | 58 | 169 | 0.0 | 6.0 | 0.00 | 0.00 | 0.00 | 51 | 1023.8 |
| 20260509033109 | 59 | 0 | 0.0 | 7.0 | 0.00 | 0.00 | 0.00 | 51 | 1023.7 |